This demonstration page uses our WeatherBlox Daily Observations layout. Learn more.

Left ArrowRight Arrow

34.74481, -87.66753

Hourly Observations for January 31, 2022

Temp ( °F °C ) Dew Point ( °F °C ) Humidity (%) Winds ( mph kmh ) Pressure ( in mb ) Visibility ( mi km ) Precip ( " mm )
12:53 am 00:53 Clear 32 0 28 -2.2 85 85 SE 3 6 30.10 1019 10 16 0.00 0.00
1:53 am 01:53 Clear 31 -0.6 26 -3.3 82 82 Calm 30.09 1019 10 16 0.00 0.00
2:53 am 02:53 Clear 30 -1.1 26 -3.3 85 85 Calm 30.09 1019 10 16 0.00 0.00
3:53 am 03:53 Clear 29 -1.7 27 -2.8 92 92 Calm 30.10 1019 10 16 0.00 0.00
4:53 am 04:53 Clear 28 -2.2 24 -4.4 85 85 Calm 30.11 1020 10 16 0.00 0.00
5:53 am 05:53 Clear 27 -2.8 23 -5 85 85 Calm 30.13 1020 10 16 0.00 0.00
6:53 am 06:53 Sunny 27 -2.8 25 -3.9 92 92 NE 3 6 30.15 1021 10 16 0.00 0.00
7:53 am 07:53 Sunny 32 0 27 -2.8 82 82 S 3 6 30.18 1022 10 16 0.00 0.00
8:53 am 08:53 Sunny 37 2.8 31 -0.6 79 79 SE 3 6 30.19 1022 10 16 0.00 0.00
9:53 am 09:53 Sunny 45 7.2 31 -0.6 58 58 SE 5 7 30.19 1023 10 16 0.00 0.00
10:53 am 10:53 Sunny 50 10 28 -2.2 43 43 VRB 5 7 30.19 1022 10 16 0.00 0.00
11:53 am 11:53 Sunny 55 12.8 27 -2.8 34 34 ESE 6 9 30.16 1021 10 16 0.00 0.00
12:53 pm 12:53 Sunny 57 13.9 26 -3.3 30 30 E 6 9 30.12 1020 10 16 0.00 0.00
1:53 pm 13:53 Sunny 61 16.1 26 -3.3 26 26 SE 3 6 30.09 1019 10 16 0.00 0.00
2:53 pm 14:53 Sunny 62 16.7 26 -3.3 25 25 ESE 7 11 30.07 1018 10 16 0.00 0.00
3:53 pm 15:53 Sunny 62 16.7 27 -2.8 26 26 SE 7 11 30.06 1018 10 16 0.00 0.00
4:53 pm 16:53 Sunny 57 13.9 30 -1.1 36 36 E 7 11 30.07 1018 10 16 0.00 0.00
5:53 pm 17:53 Clear 49 9.4 28 -2.2 44 44 E 7 11 30.10 1019 10 16 0.00 0.00
6:53 pm 18:53 Clear 49 9.4 27 -2.8 43 43 E 8 13 30.11 1020 10 16 0.00 0.00
7:53 pm 19:53 Clear 47 8.3 27 -2.8 46 46 ESE 8 13 30.11 1020 10 16 0.00 0.00
8:53 pm 20:53 Clear 44 6.7 26 -3.3 49 49 ESE 7 11 30.11 1020 10 16 0.00 0.00
9:53 pm 21:53 Clear 44 6.7 27 -2.8 51 51 E 3 6 30.12 1020 10 16 0.00 0.00
10:53 pm 22:53 Clear 40 4.4 27 -2.8 60 60 SE 6 9 30.12 1020 10 16 0.00 0.00
11:53 pm 23:53 Clear 38 3.3 27 -2.8 65 65 ESE 5 7 30.11 1020 10 16 0.00 0.00

Powered by AerisWeather